STARLINK-32672, 62195

Orbit data source: Space-Track

STARLINK-32672, 62195 is a payload satellite owned by SpaceX/Seattle (US) in LEO that was launched on Wed, 04 Dec 2024 UTC via an FALCON 9 launch vehicle from the Air Force Eastern Test Range (AFETR). Payload-class satellites include a variety of spacecraft equipped with specific instruments for various scientific and technological missions. These include communications satellites like Starlink; space stations such as the ISS; scientific satellites like the Hubble; Earth observation satellites from companies like Planet Labs, Umbra, and HawkEye 360; GPS; miniature CubeSats for education and research; and military/defense satellites.

Loading next visibility...
Identifier
62195, 2024-229D
Orbit
LEO
Last TLE update
5 hours ago
Origin
Manufacturer
SpaceX/Seattle
Mission
Operational Commercial Communications
Bus & Motor
STARLINK V2M, Unknown motor
Mass
730 kg wet, ~700 kg dry
Launch date (UTC)
2024-12-04 (7 months ago)
Launch vehicle
FALCON 9
Launch site
Air Force Eastern Test Range (AFETR)
Object type
Payload
Rocket body
Debris
Shape & HBR
Box + 2 Pan, 29 m
Radar Cross Section
33.884 m², Large (>1 m²)

Expand to show TLE details & history

TLE from 5 hours ago
0 STARLINK-32672
1 62195U 24229D   25189.93697735  .00009345  00000-0  34866-3 0  9997
2 62195  42.9984 207.2079 0001218 272.1803  87.8909 15.27582610 33287
Epoch: 2025-07-08T22:29Z
TLE epoch observation values (Epoch: 2025-07-08T22:29:14.843Z)
Latitude
-0.00001°
Longitude
-57.22876°
Altitude
482.786 km
Speed
7.626 km/s
True Right ascension
13h 48m 49s
True Declination
0° 00' 00"
Sunlit
Object was in daylight at epoch
Visualization orbit readout
Latitude
28.74599°
Longitude
85.72062°
Altitude
484.031 km
Speed
7.627 km/s
Apparent Right ascension
01h 22m 12s
Apparent Declination
-4° 59' 33"
Sunlit
Object is in daylight
Visualization observer readout
Local Sidereal Time
15:55:59
Azimuth
54.992° ENE
Elevation
-40.862°
Doppler factor
1
Orbital elements
Apogee altitude
485.823 km
Perigee altitude
484.151 km
Semi-major axis
6,863.124 km
Eccentricity
0.00012
Inclination
42.9984°
RAAN
207.2079°
Arg. of periapsis
272.1803°
True anomaly
Unknown
Mean anomaly
87.8909°
Eccentric anomaly
Unknown
Mean motion
3.81734 °/min
Orbital period
94.31 mins
BSTAR
0.00034866
Loading maneuver chart data...
Loading SW <> Apogee altitude chart data...
Loading historical data...
Loading historical data...
Loading historical data...
Loading historical data...
Loading historical data...
Loading historical data...
Loading historical data...

STARLINK-32672 Visibility forecast

Observer location: undefined°, undefined°

Span
Click to sort rows by Start time (UTC) header in descending order
Start Az.
Max El. time (UTC)
Max El. Az.
Max El.
End time (UTC)
End Az.
6 mins2025-07-09 04:59:05.896Z227.248° WSW2025-07-09 05:02:05.896Z150.547° SSE37.89°2025-07-09 05:05:05.896Z80.117° E
5 mins2025-07-09 06:39:05.896Z279.756° WNW2025-07-09 06:41:05.896Z359.129° N40.436°2025-07-09 06:44:05.896Z69.491° E
5 mins2025-07-09 08:18:05.896Z295.986° NW2025-07-09 08:20:05.896Z358.311° N40.339°2025-07-09 08:23:05.896Z86.545° E
5 mins2025-07-09 09:57:05.896Z273.377° WNW2025-07-09 09:59:05.896Z211.548° SW37.98°2025-07-09 10:02:05.896Z132.688° SE
|